Location: ??
(35.5990°N, 139.7298°E)
Time: 09:12:20
(UTC+00:00)

Cosmos 1627 Rocket - Pass Details

Date: 07 June 2020
Orbit: 950 x 1004 km, 82.9° (Epoch: 05 July)

Event Time Altitude Azimuth Distance (km) Brightness Sun altitude
Exits shadow 11:49:06 25° 170° (S) 1,872 5.5 -18.9°
Maximum altitude 11:52:55 70° 93° (E) 1,062 4.5 -19.4°
Drops below altitude 10° 11:59:16 10° 12° (NNE) 2,783 7.4 -20.3°
Sets 12:01:49 0° 10° (N) 3,737 8.2 -20.6°
